Voltar ao catálogo

FENGYUN 1C DEB

AtivoSSO
NORAD 38492·DEBRIS·🇨🇳 China

Lançado May 10, 1999 de Taiyuan Satellite Launch Center

Loading…

Próximas Passagens (próximas 24 horas)

TLE

ObsoletoSource: Space-Track

Época: Aug 28, 2026, 09:11 UTC

1 38492U 99025ESB 26240.38327796  .00005335  00000-0  31354-2 0  9994
2 38492  98.6138 300.2664 0229374 152.0000 209.3727 13.96131064596104

Acompanhe FENGYUN 1C DEB em tempo real com AllMySat

Download on the App Store